Temperature
6 6 6 6 6 6 6 7 7 8 8 8 7 6 6 5 4 4 3 3 3 3 3 3 4 4 4 4 4 4 4 4 4 4 4 4 3 4 4 4 4 4 4 4
4 5 5 5 6 6 6 6 7 7 7 7 6 5 4 4 4 3 3 3 3 3 3 3 3 3 3 3 3 3 3 3 3 3 3 3 3 3 3 3 3 3 3 3
4 4 4 5 5 5 5 6 6 6 6 5 5 4 4 3 3 3 3 2 2 2 2 3 3 3 3 3 3 3 3 3 3 3 3 3 3 3 2 3 3 3 3 3
3 3 3 6 5 5 5 5 5 5 5 4 4 3 2 2 2 2 2 2 2 2 2 2 2 2 2 2 2 3 3 3 3 2 2 2 2 2 2 2 2 2 2 2
3 4 5 5 3 3 3 4 4 4 4 3 2 2 2 2 1 1 1 1 1 1 1 1 2 2 2 2 2 2 2 2 2 2 2 2 2 1 1 1 1 1 1 1
2 3 4 4 3 2 3 4 3 2 3 2 2 4 4 1 1 1 1 1 1 1 1 1 1 1 1 1 1 1 1 1 1 1 1 1 1 1 1 1 1 1 1 1
2 3 4 2 1 2 3 3 1 1 1 1 2 2 1 0 0 -0 -0 0 0 0 0 0 0 0 0 0 1 1 1 1 0 0 0 0 0 0 0 0 0 0 0 0
2 2 2 1 1 2 2 0 -0 -0 -0 -0 -0 -1 -1 -1 -1 -1 -1 -1 -0 -0 -1 -0 -0 -0 -0 -0 -0 -0 -0 -0 -0 -0 -0 -0 -0 -0 -0 -0 -0 -0 -0 -0
2 2 1 -0 -0 -1 -1 -1 -1 -1 -1 -1 -2 -2 -2 -2 -2 -2 -2 -1 -1 -1 -1 -1 -1 -1 -1 -1 -1 -1 -1 -1 -1 -1 -1 -1 -1 -1 -1 -1 -1 -1 -1 -1
0 0 -0 -1 -2 -2 -2 -2 -2 -2 -2 -2 -2 -2 -3 -3 -3 -3 -2 -2 -2 -2 -2 -2 -2 -2 -2 -2 -1 -2 -2 -2 -2 -2 -2 -2 -2 -2 -2 -2 -2 -2 -2 -2
-0 -1 -2 -2 -2 -2 -2 -2 -3 -3 -3 -3 -3 -3 -3 -3 -3 -3 -3 -3 -3 -3 -3 -2 -2 -2 -2 -2 -2 -2 -2 -2 -2 -2 -2 -2 -2 -2 -3 -2 -2 -2 -2 -2
-1 -1 -2 -2 -3 -3 -3 -3 -3 -3 -3 -3 -4 -4 -4 -4 -4 -4 -4 -3 -3 -3 -3 -3 -3 -3 -3 -3 -3 -3 -3 -3 -3 -3 -3 -3 -3 -3 -3 -3 -3 -3 -3 -3
-3 -3 -3 -3 -3 -4 -4 -4 -4 -4 -4 -4 -4 -4 -4 -4 -5 -4 -4 -4 -4 -4 -4 -4 -4 -4 -4 -4 -4 -4 -4 -4 -3 -4 -4 -4 -4 -4 -4 -3 -3 -3 -3 -3
-4 -4 -4 -4 -4 -4 -4 -4 -4 -4 -4 -5 -5 -5 -5 -5 -5 -5 -5 -5 -5 -5 -4 -4 -4 -4 -4 -4 -4 -4 -4 -4 -4 -4 -4 -4 -4 -4 -4 -4 -4 -4 -4 -4
-4 -4 -4 -4 -4 -4 -4 -4 -5 -5 -5 -5 -5 -5 -5 -5 -5 -6 -6 -5 -5 -5 -5 -5 -5 -5 -5 -5 -5 -5 -5 -5 -5 -5 -5 -5 -5 -5 -5 -5 -5 -5 -5 -5
-5 -5 -5 -5 -5 -5 -5 -5 -5 -6 -5 -5 -5 -6 -6 -6 -6 -6 -6 -6 -6 -6 -6 -6 -6 -6 -6 -5 -5 -5 -5 -5 -5 -5 -5 -5 -5 -5 -5 -5 -5 -5 -5 -5
-6 -6 -6 -6 -6 -6 -6 -6 -6 -6 -6 -6 -6 -6 -6 -6 -6 -6 -6 -6 -6 -6 -7 -6 -6 -6 -6 -6 -6 -6 -6 -6 -6 -6 -6 -6 -6 -6 -6 -6 -6 -6 -6 -6
-6 -6 -6 -6 -6 -6 -6 -6 -6 -6 -7 -7 -7 -7 -7 -7 -7 -7 -7 -7 -7 -7 -7 -7 -7 -7 -7 -7 -7 -6 -6 -6 -7 -7 -7 -7 -7 -7 -7 -7 -6 -6 -6 -6
-7 -7 -7 -7 -7 -7 -7 -7 -7 -7 -7 -7 -7 -7 -7 -7 -7 -8 -8 -8 -7 -7 -7 -7 -7 -7 -7 -7 -7 -7 -7 -7 -7 -7 -7 -7 -7 -7 -7 -7 -7 -7 -7 -7
-7 -7 -7 -7 -7 -7 -7 -7 -7 -7 -7 -8 -8 -8 -8 -8 -8 -8 -8 -8 -8 -8 -8 -8 -8 -8 -8 -8 -8 -8 -8 -8 -8 -8 -8 -8 -8 -7 -7 -7 -7 -7 -7 -7
-7 -7 -7 -7 -7 -7 -8 -8 -8 -8 -8 -8 -8 -9 -9 -9 -9 -9 -9 -9 -9 -9 -9 -9 -8 -8 -8 -8 -8 -8 -8 -8 -8 -8 -8 -8 -8 -8 -8 -8 -8 -8 -8 -8
-8 -8 -8 -8 -8 -8 -8 -8 -8 -9 -9 -9 -9 -9 -9 -9 -9 -9 -9 -9 -9 -9 -9 -9 -9 -9 -9 -9 -9 -9 -9 -9 -9 -9 -9 -8 -8 -8 -8 -8 -8 -8 -8 -8
-8 -8 -8 -8 -9 -9 -9 -9 -9 -9 -9 -10 -10 -10 -10 -10 -10 -10 -10 -10 -10 -10 -10 -10 -9 -9 -10 -9 -9 -9 -9 -9 -9 -9 -9 -9 -9 -9 -9 -9 -9 -9 -9 -8
-9 -9 -9 -9 -9 -9 -9 -10 -10 -10 -10 -10 -10 -10 -10 -10 -10 -10 -11 -10 -10 -10 -10 -10 -10 -10 -10 -10 -10 -10 -10 -10 -9 -9 -9 -9 -9 -9 -9 -9 -9 -9 -9 -9
-10 -10 -10 -10 -10 -10 -10 -10 -10 -10 -11 -11 -11 -11 -11 -11 -11 -11 -11 -11 -11 -11 -10 -10 -10 -10 -10 -10 -10 -10 -10 -10 -10 -10 -10 -10 -10 -10 -10 -9 -9 -9 -9 -9
-10 -10 -10 -11 -11 -11 -11 -11 -11 -11 -11 -11 -11 -11 -11 -11 -11 -11 -11 -11 -11 -11 -11 -11 -11 -11 -11 -11 -11 -11 -10 -10 -10 -10 -10 -10 -10 -10 -10 -10 -10 -10 -9 -9
-11 -11 -11 -11 -11 -11 -11 -12 -12 -12 -12 -12 -12 -12 -12 -12 -12 -12 -11 -11 -11 -11 -11 -11 -11 -11 -11 -11 -11 -11 -11 -11 -11 -10 -10 -10 -10 -10 -10 -10 -10 -10 -10 -10
Wind_Speed
11 10 9 12 13 13 15 15 14 15 14 11 8 7 5 4 3 2 2 1 2 2 3 3 4 4 4 4 3 2 1 1 1 2 2 1 1 1 1 2 2 2 2 2
9 9 10 13 14 15 16 15 16 16 14 8 5 4 4 4 3 3 2 3 3 3 3 4 4 4 4 4 4 2 2 2 2 2 1 1 1 1 1 1 2 2 2 3
7 7 8 10 10 10 10 9 9 11 8 4 4 4 4 4 4 4 3 3 3 4 4 4 4 4 4 4 4 3 2 2 2 2 2 2 1 1 2 2 1 2 2 2
5 5 8 4 2 4 7 7 5 5 5 5 5 5 4 3 3 3 4 4 4 4 4 4 4 4 4 3 3 3 3 2 2 2 2 2 1 2 2 2 1 2 2 2
4 7 9 3 2 2 5 6 3 5 5 4 3 3 2 1 2 3 4 4 4 4 4 4 4 3 3 3 3 3 3 3 3 2 2 2 2 2 2 2 2 2 2 3
5 6 7 2 4 5 4 5 2 5 5 4 2 4 3 2 3 3 3 3 3 3 3 3 3 3 2 3 3 3 3 3 3 2 2 2 2 2 2 2 2 2 2 2
8 7 5 3 5 2 3 3 5 5 4 4 4 4 3 3 3 3 3 3 3 3 3 3 3 2 2 3 3 4 4 3 3 2 2 2 2 2 2 2 2 2 2 2
5 6 3 4 2 1 4 5 5 4 4 3 3 3 2 2 3 3 3 3 3 2 3 3 3 2 2 3 4 4 3 3 3 3 2 2 2 2 2 2 2 2 2 2
3 2 2 1 1 3 4 5 5 4 4 2 2 3 3 3 3 3 3 3 3 3 3 4 4 3 2 3 3 3 3 2 3 3 2 2 2 2 2 1 1 1 1 1
3 3 3 3 4 4 4 4 5 4 3 2 2 3 3 3 3 3 4 4 3 3 3 4 4 4 4 4 3 3 3 3 3 2 2 2 2 2 2 2 1 1 2 2
4 4 3 2 4 5 5 5 4 4 4 3 3 3 3 3 4 4 4 4 4 3 3 4 5 5 5 4 3 3 3 3 3 3 2 2 2 2 2 2 2 2 2 2
5 3 3 5 5 4 4 4 4 4 4 4 3 3 3 3 4 4 4 5 5 5 5 5 5 6 6 5 4 3 3 3 3 3 2 2 2 2 3 3 3 3 3 3
4 3 3 4 4 4 3 3 3 3 3 3 4 3 3 3 4 4 5 5 5 5 5 5 5 6 6 6 4 3 3 3 3 3 3 2 2 2 2 3 4 3 3 3
3 2 2 3 3 4 4 3 3 3 3 3 3 3 3 4 4 5 5 5 5 5 5 6 6 6 7 6 5 4 4 3 3 3 3 2 2 2 2 2 2 3 4 4
4 3 2 3 3 3 3 4 4 4 4 5 4 3 3 3 4 4 5 5 5 5 5 6 6 7 7 6 5 5 4 3 3 3 3 3 3 2 2 2 2 2 3 3
3 3 2 2 3 3 3 3 3 4 4 4 4 4 4 3 3 4 5 5 5 5 6 5 6 7 7 6 6 4 4 5 5 3 3 3 3 2 2 2 2 2 2 3
2 3 3 3 3 3 3 3 2 3 3 4 4 4 3 3 3 4 5 5 4 5 5 5 6 7 7 6 6 4 4 4 5 4 3 3 3 3 3 3 3 3 3 3
2 3 3 3 3 3 3 3 3 3 3 4 4 3 3 3 3 4 5 5 5 5 5 6 6 7 6 6 5 4 4 4 4 3 3 3 3 3 3 3 3 4 3 3
3 3 3 3 2 2 2 3 3 3 3 3 3 3 3 3 3 3 4 4 4 5 6 6 8 7 6 7 6 4 4 4 4 3 3 4 4 3 3 3 3 4 4 3
4 4 3 3 3 2 2 3 3 3 3 2 2 3 3 3 3 3 4 3 3 4 5 6 6 6 6 6 6 4 4 4 4 4 4 4 4 4 4 4 4 4 4 4
4 4 4 3 3 3 2 2 2 2 3 2 2 2 3 4 3 3 3 4 5 6 6 7 5 5 5 6 6 4 4 4 4 4 4 4 4 4 4 4 4 4 4 4
4 4 3 3 3 3 3 3 3 3 3 3 3 3 3 3 4 4 4 3 5 7 6 5 5 6 7 7 4 4 4 4 4 4 4 4 4 4 4 4 4 4 4 4
4 4 4 3 3 4 4 4 3 3 3 3 3 3 3 3 3 3 4 4 5 8 7 5 7 9 10 6 4 4 4 4 4 4 4 4 4 4 5 5 5 5 5 5
4 4 4 3 3 4 4 5 4 4 4 4 3 4 3 3 4 3 3 6 8 8 6 7 10 10 9 5 4 4 4 4 4 4 5 5 4 4 5 5 5 5 5 6
4 4 4 4 4 3 4 4 4 4 4 4 4 4 4 3 3 4 5 5 7 8 5 7 9 9 6 4 5 5 5 5 5 5 5 5 5 5 5 5 5 5 5 5
4 3 3 3 3 3 3 3 3 4 4 4 4 4 4 4 4 4 4 5 7 7 6 5 6 6 5 5 5 5 5 5 6 5 5 5 6 6 5 5 6 5 5 5
4 4 3 4 4 4 3 3 3 4 4 4 5 5 5 5 5 5 5 5 5 5 5 5 5 5 5 5 5 5 5 5 5 5 5 5 5 5 5 6 6 5 5 6
Wind_Direction
267 273 263 259 255 246 240 242 252 261 265 277 292 294 289 282 273 258 262 300 323 327 331 335 336 335 334 333 326 308 276 257 256 261 256 253 253 250 241 232 223 214 210 209
272 265 263 265 260 250 246 248 254 265 269 286 296 295 287 277 261 250 269 297 312 317 319 322 324 325 326 327 325 311 292 282 283 275 258 257 264 257 242 235 225 210 206 208
266 279 278 261 257 248 246 243 249 256 265 292 287 282 276 268 255 255 278 293 299 300 302 308 313 313 313 315 317 306 294 293 291 278 272 269 266 259 250 234 223 226 226 221
262 269 248 263 337 254 243 242 248 266 281 272 278 283 276 262 252 278 291 295 299 303 304 307 310 310 310 314 314 314 308 304 306 299 292 291 279 272 271 258 242 241 238 233
232 249 262 272 319 285 241 250 269 275 285 304 323 292 258 273 305 296 292 292 298 303 302 303 308 312 313 319 325 332 329 323 316 299 286 283 275 270 274 267 261 256 248 239
228 243 253 290 339 315 239 236 312 300 289 293 292 275 288 316 318 318 318 316 314 312 312 312 315 315 313 320 325 324 323 317 313 304 285 273 267 271 281 266 261 260 261 259
234 243 255 355 338 319 225 298 336 311 298 278 263 291 331 331 324 327 329 334 333 326 325 325 323 318 317 326 324 322 323 320 317 313 305 292 281 276 268 264 257 257 264 270
225 236 250 16 25 295 315 337 330 329 325 307 318 339 344 337 333 338 343 348 347 344 341 340 340 329 323 326 329 330 331 330 329 327 327 314 300 292 278 262 255 261 265 277
228 248 357 360 320 334 341 330 332 333 333 340 347 347 350 344 342 343 349 350 348 350 350 352 352 345 333 332 336 339 343 338 336 337 335 325 311 301 297 283 273 278 271 271
259 268 311 330 348 350 347 337 333 339 351 11 9 2 358 352 353 354 353 350 352 358 355 351 350 349 347 341 339 345 346 342 340 340 340 339 338 323 307 294 282 276 268 271
261 289 321 333 343 338 345 354 3 12 13 19 25 19 16 11 5 2 359 358 360 2 1 352 352 354 352 349 348 351 350 347 344 342 336 343 349 343 322 315 300 281 270 268
264 279 279 294 316 335 346 353 360 10 13 14 20 20 19 13 8 7 5 2 3 2 357 353 355 356 354 349 348 352 350 348 344 338 335 336 344 356 13 347 344 327 314 296
280 294 293 300 319 344 351 354 1 13 13 6 9 20 24 18 13 10 6 2 359 354 353 353 355 357 353 347 346 346 341 336 335 334 332 332 333 334 342 7 19 10 357 348
325 330 318 323 320 339 357 8 13 16 17 15 10 15 21 17 9 6 359 352 352 353 354 355 358 356 350 347 346 343 339 336 332 331 330 329 330 331 330 332 341 352 4 5
347 342 309 316 337 360 15 19 21 14 10 8 7 8 10 7 360 353 349 349 354 357 355 356 357 352 349 347 347 346 340 335 336 334 335 336 337 338 338 335 330 334 340 348
332 346 346 347 349 359 7 9 6 353 351 353 354 353 352 351 350 353 354 356 356 352 348 349 350 347 347 348 346 340 341 347 343 336 338 340 340 339 338 333 326 323 322 326
330 326 332 331 328 328 333 334 330 330 335 338 339 342 345 348 351 352 352 353 352 349 347 346 345 345 346 344 341 337 336 338 340 335 340 338 334 333 329 324 319 315 312 314
300 289 286 281 284 296 313 323 325 325 323 323 331 336 339 339 335 336 340 345 350 353 354 348 343 342 343 344 341 336 334 334 335 336 335 332 329 324 320 316 314 312 313 314
322 316 315 318 310 296 297 306 311 315 319 324 325 323 323 325 328 331 334 342 346 344 344 343 341 342 343 344 342 334 335 335 334 333 330 327 328 326 320 313 312 312 312 313
338 343 346 343 343 328 312 313 319 321 324 328 329 331 333 334 336 333 332 330 333 328 328 331 335 339 338 336 337 333 334 333 329 326 326 325 324 323 320 315 313 312 311 309
349 353 354 353 351 349 342 331 330 331 336 339 332 328 328 329 332 331 332 331 336 336 331 330 333 330 329 330 331 330 332 329 326 323 320 318 318 316 315 314 311 310 308 304
352 354 355 359 2 357 358 359 358 352 349 349 349 344 338 335 339 339 332 319 323 327 330 325 324 325 329 327 327 328 327 323 318 315 313 311 309 307 307 307 304 304 302 299
352 354 358 2 1 357 1 8 8 0 353 346 340 336 332 327 325 322 322 325 325 324 326 319 322 326 329 329 323 321 318 314 310 306 303 301 299 298 297 297 297 297 296 295
355 359 1 4 11 14 8 2 358 354 349 340 335 329 326 327 327 326 315 317 324 323 321 319 326 329 331 328 318 312 308 305 302 300 298 296 295 293 291 291 291 293 292 292
355 356 1 6 7 1 353 350 352 354 352 346 342 340 333 322 311 313 314 315 319 322 319 321 326 328 327 314 310 305 301 297 296 295 293 294 292 290 289 288 288 289 289 288
353 350 350 350 345 338 337 340 341 338 337 336 335 333 331 327 320 315 313 315 315 318 319 314 315 317 312 307 304 301 298 298 298 297 292 290 289 288 286 287 288 285 285 284
354 354 355 356 354 348 340 336 332 328 326 323 320 321 324 324 321 319 316 314 315 315 312 311 310 309 306 304 302 300 297 295 294 292 291 288 287 285 285 285 284 284 284 283
Height
1485 1484 1484 1483 1482 1483 1482 1477 1474 1465 1465 1466 1469 1471 1472 1472 1472 1472 1472 1471 1471 1470 1470 1468 1467 1466 1465 1464 1463 1462 1461 1460 1460 1460 1460 1460 1459 1459 1459 1460 1460 1460 1461 1461
1486 1483 1482 1480 1476 1475 1474 1473 1470 1468 1467 1469 1470 1471 1471 1470 1470 1470 1470 1470 1469 1468 1467 1466 1465 1464 1463 1462 1461 1460 1459 1458 1458 1457 1457 1457 1457 1456 1456 1456 1457 1457 1457 1458
1482 1481 1480 1474 1471 1471 1470 1469 1469 1467 1467 1469 1469 1469 1469 1469 1468 1468 1468 1468 1467 1466 1465 1464 1463 1462 1461 1460 1459 1458 1457 1456 1455 1454 1454 1454 1454 1453 1453 1453 1453 1453 1454 1455
1484 1482 1479 1467 1470 1470 1469 1469 1469 1468 1468 1468 1468 1468 1467 1467 1467 1467 1466 1466 1464 1463 1462 1462 1461 1460 1459 1458 1457 1456 1455 1454 1453 1452 1451 1451 1451 1450 1450 1450 1450 1450 1451 1451
1482 1475 1466 1468 1471 1471 1470 1467 1469 1468 1468 1468 1468 1466 1466 1465 1465 1465 1465 1463 1462 1461 1460 1459 1459 1458 1456 1455 1454 1453 1452 1451 1450 1449 1449 1448 1448 1448 1448 1447 1447 1447 1448 1448
1480 1475 1466 1466 1470 1469 1469 1465 1468 1468 1467 1467 1467 1464 1463 1464 1463 1463 1462 1461 1460 1459 1458 1457 1456 1455 1454 1452 1451 1450 1449 1448 1447 1447 1446 1446 1445 1445 1445 1445 1445 1445 1445 1445
1477 1472 1465 1472 1472 1469 1468 1466 1468 1467 1466 1466 1465 1465 1464 1462 1462 1461 1460 1459 1458 1457 1456 1455 1454 1453 1452 1450 1449 1448 1447 1446 1445 1444 1444 1443 1443 1442 1442 1442 1442 1442 1442 1442
1475 1472 1471 1474 1472 1472 1470 1469 1468 1466 1465 1464 1464 1463 1462 1461 1461 1460 1458 1457 1457 1456 1455 1453 1452 1451 1450 1448 1447 1446 1445 1443 1443 1442 1441 1441 1440 1439 1439 1439 1439 1438 1438 1438
1473 1473 1473 1474 1473 1473 1471 1469 1467 1466 1465 1463 1462 1461 1461 1460 1459 1458 1457 1456 1455 1454 1453 1452 1451 1449 1448 1446 1445 1444 1443 1441 1441 1440 1439 1438 1438 1437 1436 1436 1436 1435 1435 1435
1474 1473 1473 1473 1472 1471 1470 1469 1467 1465 1464 1463 1462 1461 1460 1459 1458 1457 1456 1455 1454 1453 1451 1450 1449 1448 1446 1445 1443 1442 1441 1440 1439 1438 1437 1436 1435 1435 1434 1434 1433 1433 1433 1432
1473 1473 1473 1472 1471 1470 1469 1467 1466 1464 1464 1462 1461 1460 1459 1458 1457 1456 1455 1454 1453 1452 1450 1449 1448 1446 1445 1443 1442 1441 1440 1438 1437 1436 1435 1434 1433 1433 1432 1431 1431 1431 1430 1430
1471 1472 1472 1471 1470 1469 1468 1466 1465 1464 1463 1462 1461 1460 1459 1458 1457 1456 1455 1453 1452 1451 1449 1448 1446 1445 1443 1442 1441 1440 1438 1437 1436 1434 1433 1432 1432 1431 1430 1429 1429 1429 1428 1428
1472 1471 1470 1469 1469 1468 1467 1466 1465 1464 1462 1462 1461 1460 1459 1458 1457 1455 1454 1453 1451 1450 1448 1447 1445 1443 1442 1441 1440 1438 1437 1436 1435 1434 1432 1431 1430 1429 1428 1427 1427 1427 1426 1426
1470 1470 1469 1468 1468 1467 1466 1465 1464 1463 1462 1461 1460 1459 1458 1457 1456 1455 1453 1452 1451 1449 1447 1446 1444 1442 1441 1440 1438 1437 1436 1435 1434 1432 1431 1430 1429 1428 1427 1426 1425 1424 1424 1424
1469 1469 1468 1467 1466 1465 1465 1464 1463 1462 1461 1460 1460 1458 1457 1456 1455 1454 1453 1451 1449 1448 1446 1444 1443 1441 1440 1438 1437 1436 1434 1433 1432 1431 1430 1429 1428 1426 1426 1425 1424 1423 1423 1422
1468 1467 1466 1465 1464 1464 1463 1462 1462 1461 1460 1459 1458 1457 1457 1455 1454 1453 1451 1450 1448 1446 1445 1443 1442 1440 1439 1437 1435 1434 1433 1432 1430 1429 1428 1427 1426 1425 1424 1423 1423 1422 1421 1421
1467 1466 1465 1463 1463 1462 1462 1461 1460 1459 1458 1457 1457 1456 1455 1454 1453 1451 1450 1449 1447 1446 1444 1442 1441 1439 1438 1436 1434 1433 1431 1430 1429 1428 1427 1425 1424 1423 1423 1422 1421 1420 1420 1419
1465 1464 1463 1462 1461 1460 1460 1459 1458 1457 1456 1456 1455 1454 1453 1452 1451 1449 1448 1447 1446 1444 1443 1441 1440 1438 1436 1435 1433 1431 1430 1428 1427 1426 1425 1424 1423 1422 1421 1420 1420 1419 1418 1417
1463 1462 1461 1460 1459 1458 1458 1457 1456 1455 1454 1453 1452 1451 1450 1450 1449 1447 1446 1445 1444 1442 1441 1440 1438 1437 1435 1433 1431 1430 1428 1427 1426 1425 1424 1422 1421 1420 1419 1419 1418 1417 1416 1415
1461 1460 1459 1458 1457 1456 1455 1454 1453 1452 1452 1451 1450 1449 1448 1447 1446 1445 1444 1443 1442 1441 1439 1438 1437 1435 1433 1432 1430 1428 1427 1425 1424 1423 1422 1421 1420 1419 1418 1417 1416 1415 1414 1413
1460 1458 1457 1456 1455 1454 1453 1452 1451 1450 1449 1448 1447 1446 1446 1445 1444 1443 1442 1441 1440 1439 1438 1437 1435 1434 1432 1430 1429 1427 1426 1424 1423 1421 1420 1419 1418 1417 1416 1415 1413 1412 1411 1410
1459 1457 1455 1454 1453 1452 1451 1450 1449 1448 1447 1446 1446 1445 1444 1443 1442 1441 1440 1440 1438 1437 1436 1434 1433 1432 1430 1429 1427 1425 1424 1422 1421 1420 1418 1417 1416 1415 1414 1413 1411 1410 1409 1408
1457 1456 1454 1453 1451 1450 1449 1449 1448 1447 1446 1445 1444 1443 1443 1442 1441 1440 1438 1438 1436 1435 1433 1432 1431 1429 1428 1426 1425 1423 1422 1420 1419 1418 1416 1415 1414 1413 1411 1410 1409 1407 1406 1405
1456 1455 1453 1452 1450 1449 1448 1447 1446 1446 1445 1444 1443 1442 1441 1440 1439 1438 1437 1435 1434 1432 1431 1429 1428 1426 1425 1423 1422 1420 1419 1417 1416 1415 1414 1412 1411 1410 1409 1407 1406 1404 1403 1401
1455 1454 1452 1450 1449 1448 1447 1446 1445 1444 1443 1442 1442 1441 1440 1439 1437 1435 1434 1433 1431 1430 1428 1426 1425 1423 1422 1420 1418 1417 1416 1414 1413 1412 1410 1409 1408 1407 1406 1404 1403 1401 1400 1398
1454 1453 1451 1450 1448 1447 1446 1445 1444 1443 1442 1441 1440 1439 1438 1436 1435 1433 1432 1430 1428 1427 1425 1423 1422 1420 1418 1417 1415 1414 1412 1411 1410 1408 1407 1406 1405 1403 1402 1401 1399 1398 1396 1395
1454 1452 1450 1449 1448 1447 1445 1444 1443 1441 1440 1439 1438 1436 1435 1434 1432 1431 1429 1427 1426 1424 1422 1420 1419 1417 1415 1414 1412 1410 1409 1408 1406 1405 1403 1402 1401 1400 1399 1397 1396 1394 1393 1392